Preview of NWS' New Version of Forecast
This preview is not operational and should not be used for support decisions.

Regional Weather Roundup (RWR)

Issued by Gray - Portland, ME (GYX)

                            
000
ASUS41 KGYX 180010
RWRGYX
WEATHER ROUNDUP FOR MAINE AND NEW HAMPSHIRE
NATIONAL WEATHER SERVICE GRAY ME
800 PM EDT WED APR 17 2019

MEZ002-005-006-010-012-015-018-020-021-024-026-027-029-180100-
MAINE
  
CITY           SKY/WX    TMP DP  RH WIND       PRES   REMARKS
PORTLAND       FAIR      48  27  44 SW8       30.18R                  
6HR MIN TEMP:  47; 6HR MAX TEMP:  60;                                

SANFORD        FAIR      45  28  51 CALM      30.19R                  
BAR HARBOR     FAIR      45  21  38 CALM      30.16R                  
WISCASSET      FAIR      47  29  49 SW3       30.19R                  
6HR MIN TEMP:  47; 6HR MAX TEMP:  60;                                

ROCKLAND       FAIR      44  32  62 SW5       30.17R                  
FRYEBURG       FAIR      39  22  50 CALM      30.17R                  
6HR MIN TEMP:  39; 6HR MAX TEMP:  59;                                

LEWISTONAUBURN FAIR      48  21  34 CALM      30.17R                  
AUGUSTA        FAIR      51  17  26 N5        30.16R                  
6HR MIN TEMP:  51; 6HR MAX TEMP:  58;                                

WATERVILLE     FAIR      48  17  29 N3        30.14R                  
BANGOR         FAIR      43  20  39 CALM      30.16R                  
6HR MIN TEMP:  43; 6HR MAX TEMP:  57;                                

GREENVILLE       N/A     42  14  32 NW6       30.13R                  
6HR MIN TEMP:  42; 6HR MAX TEMP:  50;                                

MILLINOCKET    FAIR      45  19  35 CALM      30.16R                  
6HR MIN TEMP:  44; 6HR MAX TEMP:  56;                                

HOULTON        FAIR      36  26  67 CALM      30.13R                  
6HR MIN TEMP:  36; 6HR MAX TEMP:  52;                                

PRESQUE ISLE   FAIR      41  21  44 NW7       30.15R                  
6HR MIN TEMP:  40; 6HR MAX TEMP:  49;                                

FRENCHVILLE    FAIR      44  14  29 NW5       30.13R                  
6HR MIN TEMP:  44; 6HR MAX TEMP:  48;                                

CARIBOU        FAIR      41  20  43 NW9       30.13R                  
6HR MIN TEMP:  40; 6HR MAX TEMP:  49;                                

$$

NHZ002-005-008-009-011-012-014-180100-
NEW HAMPSHIRE
  
CITY           SKY/WX    TMP DP  RH WIND       PRES   REMARKS
PORTSMOUTH     PTCLDY    44  32  63 SE9       30.18R                  
ROCHESTER      FAIR      47  28  47 S3        30.17R                  
6HR MIN TEMP:  47; 6HR MAX TEMP:  61;                                

NASHUA         FAIR      54  29  38 SE6       30.17R                  
MANCHESTER     FAIR      56  22  26 SE13      30.15R                  
6HR MIN TEMP:  56; 6HR MAX TEMP:  64;                                

CONCORD        FAIR      51  18  27 CALM      30.16R                  
6HR MIN TEMP:  51; 6HR MAX TEMP:  62;                                

LACONIA        FAIR      48  25  40 CALM      30.16R                  
PLYMOUTH       FAIR      42  26  53 CALM      30.17R                  
BERLIN         FAIR      39  24  55 CALM      30.16R                  
6HR MIN TEMP:  39; 6HR MAX TEMP:  55;                                

WHITEFIELD     FAIR      40  25  55 CALM      30.16R                  
6HR MIN TEMP:  40; 6HR MAX TEMP:  57;                                

JAFFREY        FAIR      47  31  53 CALM      30.15R                  
6HR MIN TEMP:  47; 6HR MAX TEMP:  60;                                

KEENE          FAIR      49  28  44 CALM      30.14R                  
LEBANON        FAIR      46  30  53 CALM      30.14S                  
6HR MIN TEMP:  46; 6HR MAX TEMP:  61;                                

MT WASHINGTON  PTCLDY    23  10  58 NW3         N/A                   
6HR MIN TEMP:  20; 6HR MAX TEMP:  25;                                

$$

VTZ005-007-008-180100-
VERMONT
  
CITY           SKY/WX    TMP DP  RH WIND       PRES   REMARKS
ST JOHNSBURY     N/A     47  21  35 MISG      30.15R                  
MONTPELIER     FAIR      43  21  41 S5        30.18S                  
BURLINGTON     FAIR      51  19  28 W3        30.15R                  
$$

MAZ007-012-024-CTZ003-RIZ002-NYZ038-NYZ072-180100-
SOUTHERN NEW ENGLAND AND NY
  
CITY           SKY/WX    TMP DP  RH WIND       PRES   REMARKS
BOSTON         FAIR      53  32  44 S12       30.19R                  
WORCESTER      FAIR      55  18  23 CALM      30.15R                  
NANTUCKET      FAIR      39  33  79 S6        30.24R                  
PROVIDENCE     FAIR      49  35  58 S10       30.21R                  
HARTFORD       FAIR      58  25  28 SW8       30.14R                  
ALBANY         FAIR      58  17  20 CALM      30.14R                  
NEW YORK CITY  MOCLDY    51  28  41 S13G22    30.17S                  
$$

ANZ081-ANZ082-ANZ150-NHZ014-MEZ023>029-180100-
COASTAL MARINE OBSERVATIONS
  
STATION/POSITION TIME  TEMP    WIND        PRES    WAVE
                       AIR SEA DIR/SP/G            HT/PER
                 (UTC) (F)     (DEG/KT/KT) (MB)    (FT/S)
ISLE OF SHOALS   2300   44     160/ 17/ 18 1021.3R
$$

.............KEY..............
   WCI - WIND CHILL
   TC  - TEMPERATURE IN CELSIUS
   VSB - VISIBILITY IN MILES
   HX  - HEAT INDEX
   FAIR- INDICATES FEW OR NO CLOUDS BELOW 12,000 FT, WITH NO 
         SIGNIFICANT WEATHER AND/OR OBSTRUCTIONS TO VISIBILITY.